EZY16EG LEPA-EGGW

Flight info

Callsign EZY16EG
Flight time 2h 19m
Altitude 36000
Route GALAT N861 OLOXO DCT OKABI DCT TOU DCT TUPAR UN861 DIKRO UM185 TELTU
Aircraft A320/M-SDE2E3FGHIJ1RWXYZ/LB1

Departure

Time 2026-05-07 11:01
Airport Palma de Mallorca Airport (LEPA)

Arrival

Time 2026-05-07 13:21
Airport London Luton Airport (EGGW)
Time Latitude Longitude Altitude Speed Heading
2026-05-07 10:26 39.55161 2.73012 29 ft 0 kts 196°
2026-05-07 10:49 39.55166 2.73014 30 ft 2 kts 196°
2026-05-07 10:49 39.55184 2.73021 30 ft 3 kts 196°
2026-05-07 10:50 39.55200 2.73027 30 ft 1 kts 196°
2026-05-07 10:50 39.55216 2.73031 30 ft 3 kts 165°
2026-05-07 10:50 39.55228 2.73021 30 ft 3 kts 97°
2026-05-07 10:50 39.55228 2.72996 30 ft 3 kts 73°
2026-05-07 10:51 39.55221 2.72975 30 ft 1 kts 59°
2026-05-07 10:51 39.55215 2.72961 30 ft 2 kts 58°
2026-05-07 10:51 39.55211 2.72954 30 ft 0 kts 58°
2026-05-07 10:54 39.55216 2.72963 30 ft 5 kts 58°
2026-05-07 10:54 39.55254 2.73043 30 ft 13 kts 58°
2026-05-07 10:55 39.55309 2.73160 30 ft 16 kts 58°
2026-05-07 10:55 39.55370 2.73289 30 ft 17 kts 58°
2026-05-07 10:55 39.55433 2.73423 30 ft 18 kts 59°
2026-05-07 10:55 39.55495 2.73555 30 ft 13 kts 59°
2026-05-07 10:56 39.55452 2.73636 30 ft 14 kts 148°
2026-05-07 10:56 39.55354 2.73716 30 ft 19 kts 147°
2026-05-07 10:56 39.55240 2.73805 30 ft 20 kts 149°
2026-05-07 10:56 39.55119 2.73899 30 ft 21 kts 149°
2026-05-07 10:57 39.54999 2.73994 30 ft 20 kts 149°
2026-05-07 10:57 39.54876 2.74090 30 ft 18 kts 149°
2026-05-07 10:57 39.54777 2.74097 30 ft 16 kts 230°
2026-05-07 10:57 39.54723 2.73984 30 ft 14 kts 239°
2026-05-07 10:58 39.54670 2.73873 30 ft 16 kts 238°
2026-05-07 10:58 39.54604 2.73733 30 ft 20 kts 238°
2026-05-07 10:58 39.54536 2.73589 30 ft 18 kts 238°
2026-05-07 10:58 39.54473 2.73456 30 ft 18 kts 239°
2026-05-07 10:59 39.54403 2.73307 30 ft 19 kts 239°
2026-05-07 10:59 39.54347 2.73189 30 ft 10 kts 231°
2026-05-07 10:59 39.54296 2.73197 30 ft 8 kts 127°
2026-05-07 10:59 39.54281 2.73274 30 ft 11 kts 97°
2026-05-07 11:00 39.54273 2.73398 30 ft 15 kts 94°
2026-05-07 11:00 39.54298 2.73532 30 ft 16 kts 57°
2026-05-07 11:00 39.54360 2.73665 30 ft 22 kts 59°
2026-05-07 11:00 39.54525 2.74014 30 ft 78 kts 59°
2026-05-07 11:01 39.54916 2.74846 30 ft 136 kts 59°
2026-05-07 11:01 39.55483 2.76032 251 ft 160 kts 59°
2026-05-07 11:01 39.56059 2.77227 1031 ft 154 kts 59°
2026-05-07 11:01 39.56621 2.78438 1577 ft 164 kts 60°
2026-05-07 11:02 39.57231 2.79800 1856 ft 186 kts 60°
2026-05-07 11:02 39.57919 2.81336 2145 ft 209 kts 60°
2026-05-07 11:02 39.58675 2.83016 2698 ft 218 kts 60°
2026-05-07 11:02 39.59445 2.84719 3460 ft 220 kts 59°
2026-05-07 11:03 39.60216 2.86420 4170 ft 224 kts 59°
2026-05-07 11:03 39.61015 2.88175 4872 ft 228 kts 59°
2026-05-07 11:03 39.61833 2.89952 5533 ft 232 kts 56°
2026-05-07 11:03 39.63019 2.91344 6193 ft 234 kts 19°
2026-05-07 11:04 39.64608 2.91480 6797 ft 232 kts 339°
2026-05-07 11:04 39.65895 2.90300 7418 ft 229 kts 301°
2026-05-07 11:04 39.66597 2.88448 8090 ft 230 kts 290°
2026-05-07 11:04 39.67159 2.86506 8804 ft 231 kts 287°
2026-05-07 11:05 39.67634 2.84512 9527 ft 232 kts 283°
2026-05-07 11:05 39.68013 2.82474 10219 ft 233 kts 279°
2026-05-07 11:05 39.68291 2.80428 10874 ft 234 kts 276°
2026-05-07 11:05 39.68465 2.78327 11562 ft 235 kts 272°
2026-05-07 11:06 39.68582 2.76208 12259 ft 237 kts 275°
2026-05-07 11:06 39.68894 2.74085 12820 ft 247 kts 282°
2026-05-07 11:06 39.69479 2.71868 13005 ft 273 kts 290°
2026-05-07 11:06 39.70279 2.69521 13176 ft 296 kts 290°
2026-05-07 11:07 39.71141 2.66984 13339 ft 319 kts 291°
2026-05-07 11:07 39.72047 2.64317 13694 ft 333 kts 291°
2026-05-07 11:07 39.72992 2.61546 14240 ft 338 kts 291°
2026-05-07 11:07 39.73950 2.58742 14855 ft 341 kts 290°
2026-05-07 11:08 39.74914 2.55909 15464 ft 344 kts 290°
2026-05-07 11:08 39.75882 2.53054 16074 ft 347 kts 290°
2026-05-07 11:08 39.76854 2.50174 16674 ft 349 kts 290°
2026-05-07 11:08 39.77834 2.47270 17262 ft 353 kts 290°
2026-05-07 11:09 39.78821 2.44338 17848 ft 356 kts 290°
2026-05-07 11:09 39.79815 2.41379 18407 ft 359 kts 290°
2026-05-07 11:09 39.80817 2.38395 18921 ft 361 kts 290°
2026-05-07 11:09 39.81824 2.35434 19438 ft 364 kts 292°
2026-05-07 11:10 39.83131 2.32582 19964 ft 372 kts 302°
2026-05-07 11:10 39.84861 2.30042 20497 ft 380 kts 312°
2026-05-07 11:10 39.86839 2.27735 21030 ft 383 kts 313°
2026-05-07 11:10 39.88830 2.25418 21549 ft 385 kts 313°
2026-05-07 11:11 39.90829 2.23082 22074 ft 387 kts 312°
2026-05-07 11:11 39.92837 2.20725 22590 ft 390 kts 312°
2026-05-07 11:11 39.94857 2.18351 23084 ft 392 kts 312°
2026-05-07 11:11 39.96861 2.15992 23558 ft 395 kts 312°
2026-05-07 11:12 39.98905 2.13585 23961 ft 397 kts 311°
2026-05-07 11:12 40.00961 2.11165 24353 ft 399 kts 311°
2026-05-07 11:12 40.03028 2.08730 24744 ft 401 kts 311°
2026-05-07 11:12 40.05101 2.06288 25122 ft 403 kts 311°
2026-05-07 11:13 40.07189 2.03829 25495 ft 405 kts 311°
2026-05-07 11:13 40.09284 2.01363 25860 ft 406 kts 311°
2026-05-07 11:13 40.11387 1.98884 26220 ft 408 kts 311°
2026-05-07 11:13 40.13555 1.96529 26559 ft 416 kts 318°
2026-05-07 11:14 40.16089 1.94612 26902 ft 427 kts 329°
2026-05-07 11:14 40.18932 1.93313 27245 ft 439 kts 340°
2026-05-07 11:14 40.21963 1.92566 27566 ft 445 kts 343°
2026-05-07 11:14 40.25023 1.91864 27884 ft 448 kts 343°
2026-05-07 11:15 40.28096 1.91151 28195 ft 450 kts 342°
2026-05-07 11:15 40.31184 1.90429 28501 ft 452 kts 342°
2026-05-07 11:15 40.34290 1.89705 28801 ft 454 kts 342°
2026-05-07 11:15 40.37407 1.88977 29091 ft 456 kts 342°
2026-05-07 11:16 40.40498 1.88254 29372 ft 458 kts 342°
2026-05-07 11:16 40.43644 1.87517 29647 ft 460 kts 342°
2026-05-07 11:16 40.46805 1.86779 29921 ft 462 kts 342°
2026-05-07 11:16 40.49980 1.86036 30159 ft 464 kts 342°
2026-05-07 11:17 40.53167 1.85289 30379 ft 466 kts 342°
2026-05-07 11:17 40.56365 1.84537 30599 ft 468 kts 342°
2026-05-07 11:17 40.59572 1.83785 30859 ft 468 kts 342°
2026-05-07 11:17 40.62777 1.83037 31164 ft 467 kts 342°
2026-05-07 11:18 40.65931 1.82300 31464 ft 466 kts 342°
2026-05-07 11:18 40.69122 1.81553 31767 ft 465 kts 342°
2026-05-07 11:18 40.72307 1.80806 32071 ft 465 kts 342°
2026-05-07 11:18 40.75487 1.80058 32379 ft 464 kts 342°
2026-05-07 11:19 40.78663 1.79308 32676 ft 463 kts 342°
2026-05-07 11:19 40.81835 1.78557 32977 ft 463 kts 342°
2026-05-07 11:19 40.84998 1.77807 33281 ft 462 kts 342°
2026-05-07 11:19 40.88156 1.77058 33584 ft 461 kts 342°
2026-05-07 11:20 40.91313 1.76308 33878 ft 461 kts 342°
2026-05-07 11:20 40.94465 1.75559 34148 ft 460 kts 342°
2026-05-07 11:20 40.97571 1.74821 34386 ft 460 kts 342°
2026-05-07 11:20 41.00719 1.74077 34602 ft 460 kts 342°
2026-05-07 11:21 41.03869 1.73336 34806 ft 460 kts 342°
2026-05-07 11:21 41.07028 1.72634 35012 ft 461 kts 344°
2026-05-07 11:21 41.10209 1.72058 35213 ft 463 kts 346°
2026-05-07 11:21 41.13411 1.71578 35406 ft 464 kts 347°
2026-05-07 11:22 41.16622 1.71145 35590 ft 464 kts 348°
2026-05-07 11:22 41.19837 1.70720 35779 ft 464 kts 348°
2026-05-07 11:22 41.23005 1.70287 35960 ft 464 kts 347°
2026-05-07 11:22 41.26207 1.69827 36018 ft 461 kts 347°
2026-05-07 11:23 41.32565 1.68840 36014 ft 459 kts 347°
2026-05-07 11:23 41.38907 1.67830 36015 ft 459 kts 347°
2026-05-07 11:24 41.45246 1.66833 36007 ft 459 kts 347°
2026-05-07 11:24 41.51545 1.65861 36005 ft 459 kts 347°
2026-05-07 11:25 41.57885 1.64872 36004 ft 459 kts 347°
2026-05-07 11:25 41.64228 1.63870 36003 ft 459 kts 347°
2026-05-07 11:26 41.70571 1.62869 36003 ft 459 kts 347°
2026-05-07 11:26 41.76913 1.61868 35999 ft 459 kts 347°
2026-05-07 11:27 41.83207 1.60877 35997 ft 458 kts 347°
2026-05-07 11:27 41.89542 1.59874 35995 ft 458 kts 347°
2026-05-07 11:28 41.95876 1.58871 35988 ft 458 kts 347°
2026-05-07 11:28 42.02204 1.57868 35990 ft 458 kts 347°
2026-05-07 11:29 42.08490 1.56869 35993 ft 458 kts 347°
2026-05-07 11:29 42.14818 1.55859 35997 ft 458 kts 348°
2026-05-07 11:30 42.21150 1.54852 36001 ft 458 kts 348°
2026-05-07 11:30 42.27480 1.53844 36014 ft 459 kts 348°
2026-05-07 11:31 42.33773 1.52838 36021 ft 458 kts 348°
2026-05-07 11:31 42.40101 1.51821 36022 ft 458 kts 348°
2026-05-07 11:32 42.49590 1.50291 36017 ft 458 kts 348°
2026-05-07 11:33 42.55909 1.49266 36013 ft 457 kts 348°
2026-05-07 11:33 42.62178 1.48257 36007 ft 456 kts 348°
2026-05-07 11:34 42.68483 1.47247 36000 ft 456 kts 348°
2026-05-07 11:34 42.74789 1.46243 36004 ft 456 kts 349°
2026-05-07 11:35 42.81092 1.45229 36008 ft 456 kts 348°
2026-05-07 11:35 42.87351 1.44211 36016 ft 456 kts 349°
2026-05-07 11:36 42.93649 1.43193 36018 ft 455 kts 349°
2026-05-07 11:36 42.99937 1.42182 36025 ft 455 kts 349°
2026-05-07 11:37 43.06221 1.41164 36001 ft 456 kts 349°
2026-05-07 11:37 43.12480 1.40134 36015 ft 456 kts 349°
2026-05-07 11:38 43.18779 1.39097 36022 ft 455 kts 350°
2026-05-07 11:38 43.25070 1.38072 36025 ft 455 kts 350°
2026-05-07 11:39 43.31357 1.37048 36029 ft 455 kts 350°
2026-05-07 11:39 43.37595 1.36024 36032 ft 454 kts 350°
2026-05-07 11:40 43.43872 1.34991 36038 ft 454 kts 350°
2026-05-07 11:40 43.50143 1.33959 36036 ft 454 kts 350°
2026-05-07 11:41 43.56409 1.32925 36035 ft 453 kts 350°
2026-05-07 11:41 43.62628 1.31890 36038 ft 453 kts 350°
2026-05-07 11:42 43.68770 1.30249 36036 ft 446 kts 336°
2026-05-07 11:42 43.74369 1.26697 36029 ft 442 kts 330°
2026-05-07 11:43 43.79886 1.22935 36021 ft 442 kts 330°
2026-05-07 11:43 43.85366 1.19190 36018 ft 442 kts 330°
2026-05-07 11:44 43.90878 1.15422 36011 ft 442 kts 330°
2026-05-07 11:44 43.96389 1.11640 36005 ft 442 kts 330°
2026-05-07 11:45 44.01888 1.07847 36007 ft 441 kts 330°
2026-05-07 11:45 44.07347 1.04070 36010 ft 441 kts 330°
2026-05-07 11:46 44.12843 1.00268 36009 ft 441 kts 330°
2026-05-07 11:46 44.18343 0.96468 36013 ft 441 kts 330°
2026-05-07 11:47 44.23840 0.92666 36019 ft 441 kts 330°
2026-05-07 11:47 44.29330 0.88849 36012 ft 441 kts 330°
2026-05-07 11:48 44.34782 0.85043 36014 ft 441 kts 330°
2026-05-07 11:48 44.40271 0.81213 36011 ft 441 kts 330°
2026-05-07 11:49 44.45759 0.77373 36009 ft 441 kts 330°
2026-05-07 11:49 44.51247 0.73527 36016 ft 441 kts 329°
2026-05-07 11:50 44.56726 0.69679 36031 ft 441 kts 329°
2026-05-07 11:50 44.62169 0.65834 36032 ft 441 kts 329°
2026-05-07 11:51 44.67646 0.61968 36036 ft 441 kts 329°
2026-05-07 11:51 44.73121 0.58096 36035 ft 441 kts 329°
2026-05-07 11:52 44.78597 0.54221 36042 ft 441 kts 329°
2026-05-07 11:52 44.84036 0.50355 36045 ft 441 kts 329°
2026-05-07 11:53 44.89512 0.46456 36039 ft 441 kts 329°
2026-05-07 11:53 44.94983 0.42558 36044 ft 440 kts 329°
2026-05-07 11:54 45.00448 0.38658 36034 ft 440 kts 329°
2026-05-07 11:54 45.05872 0.34773 36038 ft 440 kts 329°
2026-05-07 11:55 45.11329 0.30847 36035 ft 440 kts 329°
2026-05-07 11:55 45.16787 0.26918 36036 ft 440 kts 329°
2026-05-07 11:56 45.22239 0.22988 36033 ft 440 kts 329°
2026-05-07 11:56 45.27653 0.19079 36033 ft 440 kts 329°
2026-05-07 11:57 45.33104 0.15132 36034 ft 440 kts 329°
2026-05-07 11:57 45.38555 0.11175 36035 ft 440 kts 329°
2026-05-07 11:58 45.44002 0.07215 36032 ft 439 kts 329°
2026-05-07 11:58 45.49405 0.03270 36033 ft 439 kts 329°
2026-05-07 11:59 45.54843 -0.00705 36035 ft 439 kts 329°
2026-05-07 11:59 45.60280 -0.04693 36037 ft 439 kts 329°
2026-05-07 12:00 45.65717 -0.08676 36040 ft 439 kts 329°
2026-05-07 12:00 45.71156 -0.12666 36041 ft 439 kts 329°
2026-05-07 12:01 45.76548 -0.16637 36035 ft 439 kts 329°
2026-05-07 12:01 45.81969 -0.20649 36030 ft 439 kts 329°
2026-05-07 12:02 45.87391 -0.24660 36018 ft 438 kts 329°
2026-05-07 12:02 45.92812 -0.28675 36020 ft 438 kts 329°
2026-05-07 12:03 45.98196 -0.32672 36022 ft 438 kts 329°
2026-05-07 12:03 46.03609 -0.36705 36017 ft 438 kts 329°
2026-05-07 12:04 46.09017 -0.40754 36017 ft 438 kts 329°
2026-05-07 12:04 46.14424 -0.44794 36013 ft 438 kts 329°
2026-05-07 12:05 46.19830 -0.48846 36011 ft 438 kts 329°
2026-05-07 12:05 46.25200 -0.52878 36014 ft 438 kts 329°
2026-05-07 12:06 46.30605 -0.56958 36018 ft 438 kts 329°
2026-05-07 12:06 46.36005 -0.61042 36018 ft 438 kts 329°
2026-05-07 12:07 46.41446 -0.65018 36018 ft 440 kts 335°
2026-05-07 12:07 46.47392 -0.67026 36017 ft 446 kts 351°
2026-05-07 12:08 46.53562 -0.68046 36017 ft 446 kts 351°
2026-05-07 12:08 46.59732 -0.69093 36022 ft 446 kts 351°
2026-05-07 12:09 46.65902 -0.70144 36027 ft 447 kts 351°
2026-05-07 12:09 46.72076 -0.71187 36030 ft 447 kts 351°
2026-05-07 12:10 46.78206 -0.72224 36031 ft 446 kts 351°
2026-05-07 12:10 46.84374 -0.73264 36036 ft 446 kts 351°
2026-05-07 12:11 46.90539 -0.74311 36031 ft 446 kts 351°
2026-05-07 12:11 46.96698 -0.75360 36034 ft 446 kts 351°
2026-05-07 12:12 47.02811 -0.76403 36033 ft 445 kts 351°
2026-05-07 12:12 47.08963 -0.77461 36033 ft 445 kts 351°
2026-05-07 12:13 47.15115 -0.78517 36032 ft 445 kts 351°
2026-05-07 12:13 47.21263 -0.79566 36034 ft 445 kts 351°
2026-05-07 12:14 47.27373 -0.80613 36034 ft 445 kts 351°
2026-05-07 12:14 47.33518 -0.81679 36035 ft 445 kts 351°
2026-05-07 12:15 47.39665 -0.82751 36037 ft 445 kts 351°
2026-05-07 12:15 47.45808 -0.83820 36037 ft 445 kts 351°
2026-05-07 12:16 47.51914 -0.84880 36044 ft 445 kts 351°
2026-05-07 12:16 47.58066 -0.85852 36045 ft 445 kts 353°
2026-05-07 12:17 47.64245 -0.86567 36044 ft 445 kts 354°
2026-05-07 12:17 47.70422 -0.87222 36048 ft 445 kts 353°
2026-05-07 12:18 47.76594 -0.87951 36054 ft 445 kts 353°
2026-05-07 12:18 47.82719 -0.88730 36057 ft 445 kts 353°
2026-05-07 12:19 47.88883 -0.89503 36059 ft 445 kts 353°
2026-05-07 12:19 47.95048 -0.90263 36061 ft 444 kts 353°
2026-05-07 12:20 48.01212 -0.91017 36062 ft 444 kts 353°
2026-05-07 12:20 48.07330 -0.91763 36059 ft 444 kts 353°
2026-05-07 12:21 48.13490 -0.92522 36058 ft 444 kts 353°
2026-05-07 12:21 48.19644 -0.93302 36058 ft 444 kts 353°
2026-05-07 12:22 48.25799 -0.94077 36052 ft 444 kts 353°
2026-05-07 12:22 48.31908 -0.94835 36054 ft 444 kts 353°
2026-05-07 12:23 48.38060 -0.95603 36047 ft 444 kts 353°
2026-05-07 12:23 48.44212 -0.96382 36045 ft 443 kts 353°
2026-05-07 12:24 48.50360 -0.97157 36041 ft 443 kts 353°
2026-05-07 12:24 48.56465 -0.97923 36040 ft 443 kts 353°
2026-05-07 12:25 48.62607 -0.98702 36048 ft 443 kts 353°
2026-05-07 12:25 48.68748 -0.99473 36049 ft 443 kts 353°
2026-05-07 12:26 48.74888 -1.00255 36046 ft 443 kts 353°
2026-05-07 12:26 48.81023 -1.01047 36050 ft 442 kts 353°
2026-05-07 12:27 48.87113 -1.01816 36049 ft 442 kts 353°
2026-05-07 12:27 48.93242 -1.02590 36050 ft 442 kts 353°
2026-05-07 12:28 48.99373 -1.03382 36044 ft 442 kts 353°
2026-05-07 12:28 49.05498 -1.04182 36050 ft 442 kts 353°
2026-05-07 12:29 49.11581 -1.04975 36049 ft 442 kts 353°
2026-05-07 12:29 49.17706 -1.05767 36045 ft 442 kts 353°
2026-05-07 12:30 49.23826 -1.06566 36049 ft 441 kts 353°
2026-05-07 12:30 49.29951 -1.07359 36048 ft 441 kts 353°
2026-05-07 12:31 49.36029 -1.08146 36047 ft 441 kts 353°
2026-05-07 12:31 49.42148 -1.08945 36049 ft 441 kts 353°
2026-05-07 12:32 49.48267 -1.09750 36051 ft 441 kts 353°
2026-05-07 12:32 49.54396 -1.10218 36049 ft 443 kts
2026-05-07 12:33 49.63042 -1.05617 36047 ft 447 kts 34°
2026-05-07 12:33 49.68001 -0.99814 36052 ft 448 kts 37°
2026-05-07 12:34 49.73009 -0.94102 36057 ft 447 kts 29°
2026-05-07 12:34 49.78724 -0.90494 35745 ft 443 kts 11°
2026-05-07 12:35 49.81750 -0.89786 35237 ft 438 kts
2026-05-07 12:35 49.84732 -0.89394 34770 ft 434 kts
2026-05-07 12:35 49.87724 -0.88989 34337 ft 430 kts
2026-05-07 12:35 49.90690 -0.88575 33881 ft 426 kts
2026-05-07 12:36 49.93626 -0.88154 33381 ft 422 kts
2026-05-07 12:36 49.96536 -0.87729 32889 ft 418 kts
2026-05-07 12:36 49.99420 -0.87310 32413 ft 415 kts
2026-05-07 12:36 50.02280 -0.86898 31949 ft 411 kts
2026-05-07 12:37 50.05116 -0.86497 31490 ft 408 kts
2026-05-07 12:37 50.07892 -0.86109 31084 ft 404 kts
2026-05-07 12:37 50.10689 -0.85716 30836 ft 403 kts
2026-05-07 12:37 50.13475 -0.85325 30573 ft 399 kts
2026-05-07 12:38 50.16232 -0.84931 30128 ft 397 kts
2026-05-07 12:38 50.18969 -0.84538 29650 ft 393 kts
2026-05-07 12:38 50.21679 -0.84146 29214 ft 389 kts
2026-05-07 12:38 50.24358 -0.83756 28796 ft 385 kts
2026-05-07 12:39 50.27012 -0.83369 28390 ft 381 kts
2026-05-07 12:39 50.29637 -0.82988 27983 ft 377 kts
2026-05-07 12:39 50.32237 -0.82614 27567 ft 374 kts
2026-05-07 12:39 50.34777 -0.82248 27159 ft 370 kts
2026-05-07 12:40 50.37330 -0.81882 26746 ft 367 kts
2026-05-07 12:40 50.39864 -0.81518 26331 ft 364 kts
2026-05-07 12:40 50.42375 -0.81158 25918 ft 361 kts
2026-05-07 12:40 50.44869 -0.80796 25493 ft 359 kts
2026-05-07 12:41 50.47348 -0.80434 25073 ft 357 kts
2026-05-07 12:41 50.49815 -0.80077 24632 ft 356 kts
2026-05-07 12:41 50.52278 -0.79721 24191 ft 355 kts
2026-05-07 12:41 50.54730 -0.79366 23753 ft 354 kts
2026-05-07 12:42 50.57146 -0.79015 23266 ft 353 kts
2026-05-07 12:42 50.59583 -0.78658 22827 ft 350 kts
2026-05-07 12:42 50.62002 -0.78304 22401 ft 348 kts
2026-05-07 12:42 50.64407 -0.77952 21972 ft 346 kts
2026-05-07 12:43 50.66799 -0.77602 21557 ft 344 kts
2026-05-07 12:43 50.69178 -0.77253 21144 ft 342 kts
2026-05-07 12:43 50.71543 -0.76905 20729 ft 341 kts
2026-05-07 12:43 50.73901 -0.76562 20318 ft 340 kts
2026-05-07 12:44 50.76253 -0.76218 19909 ft 339 kts
2026-05-07 12:44 50.78596 -0.75873 19504 ft 338 kts
2026-05-07 12:44 50.80892 -0.75389 19106 ft 338 kts 12°
2026-05-07 12:44 50.83123 -0.74209 18915 ft 340 kts 21°
2026-05-07 12:45 50.85313 -0.72776 18844 ft 341 kts 21°
2026-05-07 12:45 50.87510 -0.71356 18767 ft 341 kts 21°
2026-05-07 12:45 50.89707 -0.69943 18678 ft 341 kts 21°
2026-05-07 12:45 50.91905 -0.68533 18579 ft 340 kts 21°
2026-05-07 12:46 50.94100 -0.67128 18477 ft 340 kts 21°
2026-05-07 12:46 50.96291 -0.65722 18376 ft 339 kts 21°
2026-05-07 12:46 50.98387 -0.64372 18270 ft 339 kts 21°
2026-05-07 12:46 51.00569 -0.62962 18169 ft 338 kts 21°
2026-05-07 12:47 51.01303 -0.62486 18129 ft 338 kts 21°
2026-05-07 12:47 51.03988 -0.60744 18006 ft 337 kts 21°
2026-05-07 12:47 51.06159 -0.59336 17903 ft 337 kts 21°
2026-05-07 12:47 51.08324 -0.57927 17798 ft 336 kts 21°
2026-05-07 12:48 51.10487 -0.56517 17705 ft 336 kts 21°
2026-05-07 12:48 51.12648 -0.55109 17605 ft 335 kts 21°
2026-05-07 12:48 51.14805 -0.53704 17503 ft 335 kts 21°
2026-05-07 12:48 51.16928 -0.52318 17404 ft 334 kts 21°
2026-05-07 12:49 51.19077 -0.50916 17313 ft 334 kts 21°
2026-05-07 12:49 51.21221 -0.49516 17210 ft 333 kts 22°
2026-05-07 12:49 51.23361 -0.48117 17109 ft 332 kts 22°
2026-05-07 12:49 51.25496 -0.46720 17004 ft 331 kts 22°
2026-05-07 12:50 51.27630 -0.45320 16931 ft 331 kts 22°
2026-05-07 12:50 51.29756 -0.43925 16835 ft 330 kts 22°
2026-05-07 12:50 51.31879 -0.42533 16738 ft 330 kts 22°
2026-05-07 12:50 51.33997 -0.41140 16641 ft 329 kts 22°
2026-05-07 12:51 51.36084 -0.39762 16549 ft 329 kts 22°
2026-05-07 12:51 51.38195 -0.38368 16455 ft 328 kts 22°
2026-05-07 12:51 51.40301 -0.36976 16357 ft 327 kts 22°
2026-05-07 12:51 51.42404 -0.35588 16262 ft 327 kts 22°
2026-05-07 12:52 51.44495 -0.34177 16166 ft 326 kts 24°
2026-05-07 12:52 51.46553 -0.32664 16074 ft 325 kts 25°
2026-05-07 12:52 51.48590 -0.31093 15973 ft 325 kts 26°
2026-05-07 12:52 51.50619 -0.29505 15879 ft 324 kts 26°
2026-05-07 12:53 51.52615 -0.27938 15778 ft 323 kts 26°
2026-05-07 12:53 51.54636 -0.26361 15686 ft 323 kts 26°
2026-05-07 12:53 51.56657 -0.24795 15587 ft 322 kts 26°
2026-05-07 12:53 51.58680 -0.23238 15497 ft 322 kts 25°
2026-05-07 12:54 51.60698 -0.21691 15401 ft 321 kts 25°
2026-05-07 12:54 51.62716 -0.20142 15306 ft 321 kts 25°
2026-05-07 12:54 51.64729 -0.18596 15183 ft 320 kts 26°
2026-05-07 12:54 51.66738 -0.17048 15064 ft 319 kts 26°
2026-05-07 12:55 51.68738 -0.15504 15081 ft 319 kts 26°
2026-05-07 12:55 51.70716 -0.13977 15082 ft 320 kts 26°
2026-05-07 12:55 51.72715 -0.12434 14839 ft 317 kts 26°
2026-05-07 12:55 51.74648 -0.10746 14503 ft 315 kts 35°
2026-05-07 12:56 51.76303 -0.08464 14198 ft 312 kts 47°
2026-05-07 12:56 51.77793 -0.05942 13891 ft 310 kts 47°
2026-05-07 12:56 51.79286 -0.03438 13606 ft 309 kts 47°
2026-05-07 12:56 51.80273 -0.01786 13422 ft 308 kts 47°
2026-05-07 12:57 51.82259 0.01542 13061 ft 307 kts 47°
2026-05-07 12:57 51.83239 0.03189 12887 ft 306 kts 47°
2026-05-07 12:57 51.85186 0.06465 12541 ft 304 kts 47°
2026-05-07 12:57 51.86648 0.08932 12281 ft 303 kts 47°
2026-05-07 12:58 51.88102 0.11386 12017 ft 302 kts 47°
2026-05-07 12:58 51.89551 0.13830 11767 ft 300 kts 47°
2026-05-07 12:58 51.90997 0.16260 11509 ft 299 kts 45°
2026-05-07 12:58 51.92033 0.17718 11344 ft 298 kts 37°
2026-05-07 12:59 51.93816 0.19413 11101 ft 297 kts 24°
2026-05-07 12:59 51.95709 0.20751 10847 ft 296 kts 24°
2026-05-07 12:59 51.98203 0.22521 10519 ft 295 kts 24°
2026-05-07 12:59 52.00076 0.23854 10274 ft 294 kts 24°
2026-05-07 13:00 52.01941 0.25183 10035 ft 292 kts 24°
2026-05-07 13:00 52.03199 0.26079 9941 ft 292 kts 24°
2026-05-07 13:00 52.05033 0.27384 9813 ft 292 kts 24°
2026-05-07 13:00 52.06889 0.28697 9673 ft 291 kts 21°
2026-05-07 13:01 52.08856 0.29394 9531 ft 290 kts
2026-05-07 13:01 52.10836 0.28919 9405 ft 289 kts 340°
2026-05-07 13:01 52.12580 0.27351 9268 ft 287 kts 319°
2026-05-07 13:01 52.14257 0.24053 9085 ft 286 kts 303°
2026-05-07 13:02 52.15021 0.22252 8998 ft 286 kts 303°
2026-05-07 13:02 52.16154 0.19582 8867 ft 286 kts 303°
2026-05-07 13:02 52.17268 0.16952 8738 ft 286 kts 303°
2026-05-07 13:02 52.18396 0.14287 8614 ft 286 kts 303°
2026-05-07 13:03 52.19522 0.11622 8484 ft 285 kts 303°
2026-05-07 13:03 52.20512 0.08841 8347 ft 283 kts 288°
2026-05-07 13:03 52.20828 0.05749 8222 ft 272 kts 266°
2026-05-07 13:03 52.20689 0.02747 8098 ft 260 kts 263°
2026-05-07 13:04 52.20544 -0.00120 7993 ft 248 kts 263°
2026-05-07 13:04 52.20155 -0.02799 7718 ft 241 kts 242°
2026-05-07 13:04 52.19161 -0.04935 7366 ft 236 kts 219°
2026-05-07 13:04 52.17903 -0.06659 7007 ft 236 kts 218°
2026-05-07 13:05 52.16660 -0.08342 6668 ft 235 kts 218°
2026-05-07 13:05 52.15405 -0.10038 6337 ft 234 kts 218°
2026-05-07 13:05 52.14159 -0.11722 6045 ft 231 kts 218°
2026-05-07 13:05 52.12921 -0.13395 6006 ft 232 kts 218°
2026-05-07 13:06 52.11678 -0.15075 6011 ft 233 kts 218°
2026-05-07 13:06 52.10426 -0.16776 5998 ft 234 kts 220°
2026-05-07 13:06 52.09307 -0.18693 5860 ft 233 kts 226°
2026-05-07 13:06 52.08232 -0.20658 5522 ft 232 kts 226°
2026-05-07 13:07 52.07159 -0.22617 5194 ft 231 kts 226°
2026-05-07 13:07 52.06109 -0.24535 5012 ft 230 kts 226°
2026-05-07 13:07 52.05045 -0.26479 5004 ft 231 kts 226°
2026-05-07 13:07 52.03977 -0.28428 5010 ft 231 kts 226°
2026-05-07 13:08 52.02904 -0.30381 5005 ft 232 kts 226°
2026-05-07 13:08 52.01830 -0.32331 5010 ft 232 kts 226°
2026-05-07 13:08 52.00755 -0.34283 5007 ft 232 kts 227°
2026-05-07 13:08 51.99824 -0.36415 5009 ft 233 kts 240°
2026-05-07 13:09 51.99222 -0.38857 5014 ft 234 kts 252°
2026-05-07 13:09 51.98770 -0.41360 5010 ft 234 kts 252°
2026-05-07 13:09 51.98272 -0.43872 5011 ft 234 kts 245°
2026-05-07 13:09 51.97491 -0.46171 5004 ft 232 kts 232°
2026-05-07 13:10 51.96496 -0.48226 5006 ft 232 kts 230°
2026-05-07 13:10 51.95497 -0.50274 5009 ft 232 kts 230°
2026-05-07 13:10 51.94498 -0.52329 5006 ft 232 kts 230°
2026-05-07 13:10 51.93501 -0.54386 5006 ft 232 kts 230°
2026-05-07 13:11 51.92505 -0.56443 5013 ft 232 kts 230°
2026-05-07 13:11 51.91522 -0.58468 5005 ft 232 kts 230°
2026-05-07 13:11 51.90551 -0.60548 5001 ft 232 kts 237°
2026-05-07 13:11 51.89844 -0.62901 4999 ft 233 kts 250°
2026-05-07 13:12 51.89394 -0.65426 4998 ft 234 kts 253°
2026-05-07 13:12 51.88952 -0.67955 4999 ft 233 kts 253°
2026-05-07 13:12 51.88506 -0.70475 4996 ft 233 kts 253°
2026-05-07 13:12 51.88058 -0.72986 4996 ft 232 kts 253°
2026-05-07 13:13 51.87607 -0.75495 4997 ft 232 kts 253°
2026-05-07 13:13 51.87307 -0.77155 4988 ft 232 kts 253°
2026-05-07 13:13 51.86355 -0.80148 4558 ft 227 kts 220°
2026-05-07 13:13 51.84963 -0.81250 4200 ft 225 kts 187°
2026-05-07 13:14 51.83432 -0.80997 3952 ft 219 kts 164°
2026-05-07 13:14 51.82010 -0.80272 3831 ft 210 kts 161°
2026-05-07 13:14 51.80791 -0.79102 3694 ft 202 kts 129°
2026-05-07 13:14 51.80290 -0.77111 3565 ft 194 kts 86°
2026-05-07 13:15 51.80706 -0.75099 3404 ft 189 kts 65°
2026-05-07 13:15 51.81136 -0.73105 3148 ft 188 kts 75°
2026-05-07 13:15 51.81485 -0.71080 3017 ft 187 kts 75°
2026-05-07 13:15 51.81838 -0.69056 3001 ft 188 kts 75°
2026-05-07 13:16 51.82195 -0.67022 2998 ft 188 kts 75°
2026-05-07 13:16 51.82544 -0.65038 2995 ft 178 kts 75°
2026-05-07 13:16 51.82873 -0.63168 3030 ft 170 kts 75°
2026-05-07 13:16 51.83194 -0.61340 3012 ft 168 kts 75°
2026-05-07 13:17 51.83507 -0.59551 3001 ft 167 kts 76°
2026-05-07 13:17 51.83825 -0.57736 2951 ft 168 kts 76°
2026-05-07 13:17 51.84141 -0.55935 2788 ft 163 kts 76°
2026-05-07 13:17 51.84440 -0.54227 2592 ft 153 kts 76°
2026-05-07 13:18 51.84722 -0.52616 2425 ft 147 kts 76°
2026-05-07 13:18 51.84996 -0.51045 2222 ft 144 kts 76°
2026-05-07 13:18 51.85267 -0.49485 2024 ft 144 kts 76°
2026-05-07 13:18 51.85538 -0.47929 1833 ft 144 kts 77°
2026-05-07 13:19 51.85806 -0.46398 1597 ft 143 kts 76°
2026-05-07 13:19 51.86082 -0.44858 1381 ft 142 kts 76°
2026-05-07 13:19 51.86341 -0.43332 1251 ft 140 kts 77°
2026-05-07 13:19 51.86604 -0.41821 998 ft 138 kts 76°
2026-05-07 13:20 51.86859 -0.40330 809 ft 137 kts 76°
2026-05-07 13:20 51.87116 -0.38861 624 ft 135 kts 77°
2026-05-07 13:20 51.87351 -0.37427 522 ft 114 kts 75°
2026-05-07 13:20 51.87498 -0.36606 523 ft 54 kts 75°
2026-05-07 13:21 51.87592 -0.36078 518 ft 35 kts 75°
2026-05-07 13:21 51.87681 -0.35925 518 ft 19 kts 351°
2026-05-07 13:21 51.87775 -0.36022 519 ft 16 kts 292°
2026-05-07 13:21 51.87766 -0.36182 519 ft 14 kts 254°
2026-05-07 13:22 51.87737 -0.36348 520 ft 18 kts 254°
2026-05-07 13:22 51.87701 -0.36559 520 ft 20 kts 254°
2026-05-07 13:22 51.87663 -0.36778 521 ft 21 kts 254°
2026-05-07 13:22 51.87623 -0.37005 522 ft 20 kts 255°
2026-05-07 13:23 51.87591 -0.37190 522 ft 16 kts 254°
2026-05-07 13:23 51.87579 -0.37357 522 ft 14 kts 282°
2026-05-07 13:23 51.87638 -0.37467 522 ft 13 kts 329°
2026-05-07 13:23 51.87701 -0.37574 522 ft 17 kts 296°
2026-05-07 13:24 51.87750 -0.37742 523 ft 15 kts 295°
2026-05-07 13:24 51.87793 -0.37893 523 ft 16 kts 297°
2026-05-07 13:24 51.87867 -0.38006 523 ft 14 kts 340°
2026-05-07 13:24 51.87959 -0.37999 523 ft 13 kts 19°
2026-05-07 13:25 51.88025 -0.37925 523 ft 11 kts 38°
2026-05-07 13:25 51.88082 -0.37856 523 ft 9 kts 37°
2026-05-07 13:25 51.88104 -0.37804 523 ft 5 kts 96°
2026-05-07 13:25 51.88094 -0.37773 523 ft 2 kts 122°
2026-05-07 13:26 51.88090 -0.37763 523 ft 2 kts 126°
2026-05-07 13:26 51.88083 -0.37749 523 ft 1 kts 128°
2026-05-07 13:26 51.88081 -0.37745 523 ft 0 kts 128°